"read_dt","SO2 (ppb)","flags","PMT voltage (V)","lamp voltage (V)","lamp intensity (Hz)","internal temp (C)","react chamber temp (C)","sample flow (l/min)","pres (mmHg)","SO2 bkg (ppb)","SO2 coefficient"
2018-09-27 00:00:00,-3.081E-01,4C000000*,-703.0,957.724,90,30.5,45.0,0.411,742.0,2.1,1.050*
2018-09-27 00:01:00,-2.999E-01,4C000000*,-703.0,957.320,90,30.4,45.0,0.411,742.3,2.1,1.050*
2018-09-27 00:02:00,-4.207E-01,4C000000*,-702.6,958.532,91,30.4,45.0,0.411,742.3,2.1,1.050*
2018-09-27 00:03:00,-3.108E-01,4C000000*,-702.6,957.724,89,30.3,44.8,0.411,742.0,2.1,1.050*
2018-09-27 00:04:00,-3.708E-01,4C000000*,-702.6,958.937,91,30.4,45.3,0.411,742.0,2.1,1.050*
2018-09-27 00:05:00,-3.955E-01,4C000000*,-702.6,958.128,90,30.3,44.9,0.411,742.0,2.1,1.050*
2018-09-27 00:06:00,-3.388E-01,4C000000*,-702.6,958.937,91,30.3,45.1,0.411,742.0,2.1,1.050*
2018-09-27 00:07:00,-3.397E-01,4C000000*,-703.4,958.128,89,30.2,44.9,0.411,742.0,2.1,1.050*
2018-09-27 00:08:00,-3.866E-01,4C000000*,-703.0,959.745,91,30.1,45.0,0.411,742.3,2.1,1.050*
"read_dt","SO2 (ppb)","flags","PMT voltage (V)","lamp voltage (V)","lamp intensity (Hz)","internal temp (C)","react chamber temp (C)","sample flow (l/min)","pres (mmHg)","SO2 bkg (ppb)","SO2 coefficient"
2018-09-27 07:44:00,-1.705E+00,4C000045*,-703.4,729.714,43,17.0,19.2,0.407,743.5,2.2,1.050*
2018-09-27 07:45:00,-1.736E-01,4C000045*,-703.4,935.893,85,17.1,20.0,0.407,743.5,2.2,1.050*
2018-09-27 07:46:00,3.437E-01,4C000005*,-703.4,950.447,89,17.2,20.8,0.407,742.9,2.2,1.050*
2018-09-27 07:47:00,4.300E-01,4C000005*,-703.4,952.873,89,17.4,21.6,0.407,743.5,2.2,1.050*
2018-09-27 07:48:00,3.422E-01,4C000005*,-703.4,953.277,89,17.5,22.5,0.407,743.2,2.2,1.050*
2018-09-27 07:49:00,3.766E-01,4C000005*,-703.4,956.107,89,17.7,23.3,0.407,742.9,2.2,1.050*
2018-09-27 07:50:00,3.978E-01,4C000005*,-703.4,955.298,91,17.9,24.2,0.407,743.2,2.2,1.050*
2018-09-27 07:51:00,2.630E-01,4C000005*,-703.0,955.703,88,18.1,25.0,0.407,742.9,2.2,1.050*
2018-09-27 07:52:00,3.747E-01,4C000005*,-703.4,957.724,90,18.2,25.8,0.407,743.2,2.2,1.050*
2018-09-27 07:53:00,2.520E-01,4C000005*,-703.4,956.511,91,18.4,26.5,0.407,742.9,2.2,1.050*
2018-09-27 07:54:00,3.595E-01,4C000005*,-703.4,958.937,91,18.6,27.3,0.407,742.6,2.2,1.050*
2018-09-27 07:55:00,2.504E-01,4C000005*,-703.4,958.937,90,18.8,28.0,0.407,742.6,2.2,1.050*
2018-09-27 07:56:00,2.404E-01,4C000005*,-703.4,958.532,90,18.9,28.8,0.407,742.6,2.2,1.050*
2018-09-27 07:57:00,2.135E-01,4C000005*,-702.6,958.128,91,19.1,29.4,0.407,742.6,2.2,1.050*
2018-09-27 07:58:00,2.754E-01,4C000005*,-703.4,958.937,89,19.2,30.0,0.407,742.6,2.2,1.050*
2018-09-27 07:59:00,1.780E-01,4C000005*,-703.0,960.150,89,19.5,30.7,0.407,742.6,2.2,1.050*
2018-09-27 08:00:00,1.158E-01,4C000005*,-703.0,959.745,89,19.5,31.3,0.407,742.6,2.2,1.050*
2018-09-27 08:01:00,1.734E-01,4C000005*,-702.6,959.745,90,19.7,32.0,0.407,742.6,2.2,1.050*
2018-09-27 08:02:00,1.421E-01,4C000005*,-703.4,959.745,90,19.8,32.5,0.407,742.6,2.2,1.050*
2018-09-27 08:03:00,1.133E-01,4C000005*,-703.0,959.341,90,20.0,33.1,0.407,742.6,2.2,1.050*
2018-09-27 08:04:00,5.303E-02,4C000005*,-703.4,959.341,91,20.2,33.6,0.407,742.6,2.2,1.050*
2018-09-27 08:05:00,8.432E-02,4C000005*,-703.0,959.745,88,20.3,34.2,0.407,742.6,2.2,1.050*
2018-09-27 08:06:00,8.470E-02,4C000005*,-703.4,959.341,91,20.5,34.6,0.407,742.6,2.2,1.050*
2018-09-27 08:07:00,1.831E-01,4C000005*,-703.0,960.958,90,20.6,35.2,0.407,742.6,2.2,1.050*
2018-09-27 08:08:00,6.334E-02,4C000005*,-703.0,960.958,89,20.7,35.7,0.407,742.6,2.2,1.050*
2018-09-27 08:09:00,4.606E-03,4C000005*,-703.0,961.767,90,20.8,36.1,0.408,742.6,2.2,1.050*
2018-09-27 08:10:00,2.290E-03,4C000005*,-703.4,961.767,89,20.9,36.6,0.408,742.6,2.2,1.050*
2018-09-27 08:11:00,-3.210E-02,4C000005*,-703.4,961.362,90,21.0,37.0,0.407,742.6,2.2,1.050*
2018-09-27 08:12:00,-3.017E-02,4C000005*,-703.0,960.958,90,21.1,37.5,0.408,742.6,2.2,1.050*
2018-09-27 08:13:00,1.469E-02,4C000005*,-703.4,961.767,89,21.3,37.9,0.407,742.6,2.2,1.050*
2018-09-27 08:14:00,-2.103E-02,4C000005*,-703.0,960.554,91,21.3,38.3,0.408,742.6,2.2,1.050*
2018-09-27 08:15:00,-3.028E-02,4C000005*,-703.4,960.554,89,21.4,38.7,0.408,742.6,2.2,1.050*
2018-09-27 08:16:00,-1.677E-02,4C000005*,-703.4,960.958,90,21.5,39.1,0.408,742.6,2.2,1.050*
2018-09-27 08:17:00,1.520E-02,4C000005*,-702.6,961.362,91,21.6,39.4,0.408,742.6,2.2,1.050*
2018-09-27 08:18:00,-5.040E-02,4C000005*,-703.4,960.958,89,21.7,39.8,0.408,742.6,2.2,1.050*
2018-09-27 08:19:00,-9.056E-02,4C000005*,-703.4,961.362,89,21.8,40.1,0.408,742.6,2.2,1.050*
2018-09-27 08:20:00,-1.416E-01,4C000005*,-703.0,959.745,89,21.9,40.5,0.408,742.6,2.2,1.050*
2018-09-27 08:21:00,-5.435E-02,4C000005*,-703.4,959.341,89,22.0,40.8,0.408,742.6,2.2,1.050*
2018-09-27 08:22:00,-1.858E-01,4C000005*,-703.0,960.554,91,22.1,41.2,0.408,742.6,2.2,1.050*
2018-09-27 08:23:00,-1.082E-01,4C000005*,-703.0,961.362,91,22.2,41.5,0.408,742.3,2.2,1.050*
2018-09-27 08:24:00,-1.715E-01,4C000005*,-703.0,961.767,90,22.3,41.8,0.407,742.6,2.2,1.050*
2018-09-27 08:25:00,-1.178E-01,4C000005*,-703.4,962.171,90,22.4,42.1,0.408,742.6,2.2,1.050*
2018-09-27 08:26:00,-1.938E-01,4C000005*,-703.0,961.362,90,22.5,42.3,0.408,742.6,2.2,1.050*
2018-09-27 08:27:00,-1.736E-01,4C000005*,-703.0,961.767,90,22.6,42.7,0.408,742.6,2.2,1.050*
2018-09-27 08:28:00,-8.087E-02,4C000005*,-703.4,962.575,91,22.6,42.9,0.408,742.6,2.2,1.050*
2018-09-27 08:29:00,-1.653E-01,4C000000*,-702.6,960.958,90,22.6,43.2,0.408,742.6,2.2,1.050*
2018-09-27 08:30:00,-2.627E-01,4C000000*,-703.0,960.554,90,22.8,43.5,0.408,742.6,2.2,1.050*
2018-09-27 08:31:00,-1.841E-01,4C000000*,-703.0,961.362,90,22.9,43.7,0.408,742.6,2.2,1.050*
2018-09-27 08:32:00,-1.572E-01,4C000000*,-703.0,960.958,90,23.0,43.9,0.408,742.6,2.2,1.050*
2018-09-27 08:33:00,-1.113E-01,4C000000*,-703.4,961.767,90,23.0,44.2,0.408,742.6,2.2,1.050*
2018-09-27 08:34:00,-1.588E-01,4C000000*,-703.0,961.767,90,23.1,44.4,0.409,742.6,2.2,1.050*
2018-09-27 08:35:00,-1.716E-01,4C000000*,-703.0,961.362,89,23.1,44.6,0.408,742.6,2.2,1.050*
2018-09-27 08:36:00,-1.796E-01,4C000000*,-703.0,960.958,90,23.2,44.8,0.409,742.6,2.2,1.050*
2018-09-27 08:37:00,-1.605E-01,4C000000*,-702.6,961.767,91,23.2,45.0,0.408,742.3,2.2,1.050*
2018-09-27 08:38:00,-1.302E-01,4C000000*,-703.4,960.554,89,23.3,44.9,0.409,742.6,2.2,1.050*
2018-09-27 08:39:00,-2.442E-01,4C000000*,-703.0,961.767,89,23.4,44.8,0.409,742.6,2.2,1.050*
2018-09-27 08:40:00,-2.994E-01,4C000000*,-703.4,960.554,89,23.5,45.0,0.409,742.6,2.2,1.050*
2018-09-27 08:41:00,-1.415E-01,4C000000*,-703.0,961.362,90,23.5,45.1,0.409,742.6,2.2,1.050*
2018-09-27 08:42:00,-2.817E-01,4C000000*,-703.0,960.554,91,23.6,44.8,0.408,742.6,2.2,1.050*
2018-09-27 08:43:00,-1.831E-01,4C000000*,-702.6,961.767,90,23.6,45.0,0.408,742.6,2.2,1.050*
2018-09-27 08:44:00,-2.096E-01,4C000000*,-703.4,961.362,90,23.6,45.0,0.409,742.3,2.2,1.050*
2018-09-27 08:45:00,-2.952E-01,4C000000*,-703.0,962.171,90,23.6,44.7,0.408,742.6,2.2,1.050*
2018-09-27 08:46:00,-2.149E-01,4C000000*,-703.0,962.171,90,23.7,44.8,0.409,742.6,2.2,1.050*
2018-09-27 08:47:00,-2.222E-01,4C000000*,-703.0,960.958,90,23.7,45.0,0.408,742.6,2.2,1.050*
2018-09-27 08:48:00,-2.567E-01,4C000000*,-703.0,961.767,90,23.7,44.9,0.409,742.3,2.2,1.050*
2018-09-27 08:49:00,-3.084E-01,4C000000*,-703.0,960.958,91,23.7,44.8,0.409,742.6,2.2,1.050*
2018-09-27 08:50:00,-3.316E-01,4C000000*,-703.0,960.554,90,23.8,44.9,0.409,742.6,2.2,1.050*
2018-09-27 08:51:00,-2.720E-01,4C000000*,-703.0,962.171,89,23.9,45.0,0.409,742.6,2.2,1.050*
2018-09-27 08:52:00,-2.414E-01,4C000000*,-703.0,961.362,90,23.9,44.7,0.409,742.6,2.2,1.050*
2018-09-27 08:53:00,-2.679E-01,4C000000*,-703.0,960.958,90,23.9,44.9,0.409,742.6,2.2,1.050*
2018-09-27 08:54:00,-2.750E-01,4C000000*,-702.6,960.958,89,23.9,45.1,0.409,742.6,2.2,1.050*
2018-09-27 08:55:00,-2.826E-01,4C000000*,-703.0,963.384,89,24.0,44.7,0.409,742.6,2.2,1.050*
2018-09-27 08:56:00,-2.953E-01,4C000000*,-703.0,961.362,89,24.0,44.9,0.409,742.6,2.2,1.050*
2018-09-27 08:57:00,-2.620E-01,4C000000*,-703.0,962.575,89,24.0,45.1,0.409,742.6,2.2,1.050*
2018-09-27 08:58:00,-3.102E-01,4C000000*,-703.0,962.171,90,24.1,44.8,0.409,742.3,2.2,1.050*
2018-09-27 08:59:00,-2.669E-01,4C000000*,-703.0,960.958,90,24.0,44.9,0.409,742.6,2.2,1.050*
2018-09-27 09:00:00,-2.278E-01,4C000000*,-703.0,961.767,89,24.1,45.1,0.409,742.6,2.2,1.050*
2018-09-27 09:01:00,-2.633E-01,4C000000*,-703.0,962.979,90,24.0,44.8,0.409,742.6,2.2,1.050*
2018-09-27 09:02:00,-2.997E-01,4C000000*,-703.0,963.384,91,24.1,44.8,0.409,742.9,2.2,1.050*
2018-09-27 09:03:00,-3.157E-01,4C000000*,-703.4,962.171,91,24.1,45.0,0.409,742.6,2.2,1.050*
2018-09-27 09:04:00,-2.682E-01,4C000000*,-702.6,961.362,88,24.2,45.2,0.409,742.6,2.2,1.050*
2018-09-27 09:05:00,-3.988E-01,4C000000*,-702.6,961.767,91,24.1,44.7,0.409,742.6,2.2,1.050*
2018-09-27 09:06:00,-2.559E-01,4C000000*,-703.0,961.362,90,24.2,44.9,0.409,742.6,2.2,1.050*
2018-09-27 09:07:00,-3.016E-01,4C000000*,-703.0,962.979,90,24.1,45.0,0.409,742.6,2.2,1.050*
2018-09-27 09:08:00,-3.050E-01,4C000000*,-703.0,961.767,90,24.2,44.8,0.409,742.6,2.2,1.050*
2018-09-27 09:09:00,-2.038E-01,4C000000*,-703.0,961.767,90,24.2,44.8,0.409,742.6,2.2,1.050*
2018-09-27 09:10:00,-3.296E-01,4C000000*,-703.0,961.362,91,24.3,45.0,0.409,742.6,2.2,1.050*
2018-09-27 09:11:00,-3.391E-01,4C000000*,-703.0,962.575,88,24.3,44.9,0.409,742.6,2.2,1.050*
2018-09-27 09:12:00,-2.383E-01,4C000000*,-702.6,962.575,88,24.3,44.8,0.409,742.6,2.2,1.050*
2018-09-27 09:13:00,-3.093E-01,4C000000*,-702.6,960.958,90,24.3,45.0,0.409,742.6,2.2,1.050*
2018-09-27 09:14:00,-3.005E-01,4C000000*,-703.4,961.767,90,24.3,45.0,0.409,742.6,2.2,1.050*
2018-09-27 09:15:00,-3.389E-01,4C000000*,-703.0,960.554,89,24.3,44.7,0.409,742.6,2.2,1.050*
2018-09-27 09:16:00,-3.106E-01,4C000000*,-703.0,960.958,90,24.3,44.9,0.409,742.6,2.2,1.050*
2018-09-27 09:17:00,-3.329E-01,4C000000*,-703.0,961.767,90,24.3,45.0,0.409,742.6,2.2,1.050*
2018-09-27 09:18:00,-3.027E-01,4C000000*,-703.0,962.979,90,24.3,44.8,0.409,742.6,2.2,1.050*
2018-09-27 09:19:00,-2.410E-01,4C000000*,-703.0,962.575,89,24.4,45.0,0.409,742.6,2.2,1.050*
2018-09-27 09:20:00,-1.903E-01,4C000000*,-703.0,960.554,91,24.4,45.1,0.409,742.6,2.2,1.050*
2018-09-27 09:21:00,-2.197E-01,4C000000*,-703.0,963.384,91,24.4,44.8,0.409,742.6,2.2,1.050*
2018-09-27 09:22:00,-2.267E-01,4C000000*,-703.0,961.767,89,24.4,45.0,0.409,742.6,2.2,1.050*
2018-09-27 09:23:00,-4.024E-01,4C000000*,-703.0,960.554,90,24.4,44.9,0.410,742.6,2.2,1.050*
2018-09-27 09:24:00,-3.006E-01,4C000000*,-703.0,961.767,89,24.4,44.8,0.409,742.6,2.2,1.050*
2018-09-27 09:25:00,-3.741E-01,4C000000*,-703.0,961.362,91,24.4,45.0,0.409,742.6,2.2,1.050*
2018-09-27 09:26:00,-2.997E-01,4C000000*,-703.0,960.554,89,24.4,44.9,0.409,742.6,2.2,1.050*
2018-09-27 09:27:00,-3.808E-01,4C000000*,-703.4,963.384,91,24.4,44.9,0.409,742.6,2.2,1.050*
2018-09-27 09:28:00,-2.936E-01,4C000000*,-703.0,960.958,89,24.4,45.1,0.409,742.6,2.2,1.050*
2018-09-27 09:29:00,-2.578E-01,4C000000*,-703.0,961.767,89,24.5,44.7,0.409,742.6,2.2,1.050*
2018-09-27 09:30:00,-3.164E-01,4C000000*,-703.0,962.575,88,24.5,44.9,0.409,742.6,2.2,1.050*
2018-09-27 09:31:00,-3.074E-01,4C000000*,-703.0,961.767,89,24.6,45.1,0.409,742.6,2.2,1.050*
2018-09-27 09:32:00,-3.110E-01,4C000000*,-703.0,961.362,91,24.5,44.7,0.410,742.6,2.2,1.050*
2018-09-27 09:33:00,-4.153E-01,4C000000*,-702.6,960.958,90,24.6,44.9,0.409,742.6,2.2,1.050*
2018-09-27 09:34:00,-2.780E-01,4C000000*,-703.0,960.958,90,24.5,45.0,0.409,742.6,2.2,1.050*
2018-09-27 09:35:00,-3.559E-01,4C000000*,-703.0,960.554,90,24.6,44.8,0.409,742.6,2.2,1.050*
2018-09-27 09:36:00,-3.238E-01,4C000000*,-703.0,961.362,91,24.5,44.8,0.409,742.6,2.2,1.050*
2018-09-27 09:37:00,-2.460E-01,4C000000*,-703.4,961.362,89,24.6,45.0,0.409,742.6,2.2,1.050*
2018-09-27 09:38:00,-3.108E-01,4C000000*,-703.0,962.575,90,24.6,45.0,0.409,742.6,2.2,1.050*
2018-09-27 09:39:00,-4.002E-01,4C000000*,-703.0,961.767,90,24.6,44.8,0.409,742.6,2.2,1.050*
2018-09-27 09:40:00,-3.266E-01,4C000000*,-703.0,961.362,89,24.6,45.0,0.409,742.6,2.2,1.050*
2018-09-27 09:41:00,-3.361E-01,4C000000*,-703.0,960.554,91,24.6,45.0,0.409,742.3,2.2,1.050*
2018-09-27 09:42:00,-2.731E-01,4C000000*,-703.0,961.362,89,24.6,44.7,0.409,742.6,2.2,1.050*
2018-09-27 09:43:00,-3.924E-01,4C000000*,-702.6,960.554,89,24.6,44.9,0.409,742.3,2.2,1.050*
2018-09-27 09:44:00,-3.217E-01,4C000000*,-702.6,962.171,90,24.7,45.1,0.409,742.3,2.2,1.050*
2018-09-27 09:45:00,-2.595E-01,4C000000*,-703.4,960.554,90,24.6,44.8,0.409,742.6,2.2,1.050*
2018-09-27 09:46:00,-2.772E-01,4C000000*,-703.0,960.554,89,24.6,44.9,0.409,742.6,2.2,1.050*
2018-09-27 09:47:00,-3.739E-01,4C000000*,-702.6,961.362,91,24.7,45.1,0.409,742.6,2.2,1.050*
2018-09-27 09:48:00,-3.297E-01,4C000000*,-703.7,961.362,91,24.7,44.7,0.409,742.6,2.2,1.050*
2018-09-27 09:49:00,-3.190E-01,4C000000*,-702.6,961.767,91,24.7,44.8,0.410,742.6,2.2,1.050*
2018-09-27 09:50:00,-2.926E-01,4C000000*,-703.4,962.575,89,24.8,45.1,0.409,742.6,2.2,1.050*
2018-09-27 09:51:00,-3.059E-01,4C000000*,-702.3,961.362,89,24.7,44.8,0.410,742.6,2.2,1.050*
2018-09-27 09:52:00,-3.191E-01,4C000000*,-703.4,962.171,89,24.7,44.8,0.409,742.6,2.2,1.050*
2018-09-27 09:53:00,-2.126E-01,4C000000*,-702.6,963.384,90,24.7,45.1,0.409,742.9,2.2,1.050*
2018-09-27 09:54:00,-2.732E-01,4C000000*,-703.0,963.788,92,24.8,44.8,0.409,742.6,2.2,1.050*
2018-09-27 09:55:00,-2.689E-01,4C000000*,-702.6,962.979,91,24.8,44.9,0.409,742.6,2.2,1.050*
2018-09-27 09:56:00,-3.082E-01,4C000000*,-702.3,961.362,89,24.8,45.1,0.410,742.6,2.2,1.050*
2018-09-27 09:57:00,-3.338E-01,4C000000*,-702.6,960.958,89,24.8,44.8,0.409,742.6,2.2,1.050*
2018-09-27 09:58:00,-2.652E-01,4C000000*,-703.0,961.767,91,24.8,44.9,0.409,742.9,2.2,1.050*
2018-09-27 09:59:00,-2.737E-01,4C000000*,-702.6,961.362,90,24.8,45.0,0.409,742.6,2.2,1.050*
2018-09-27 10:00:00,-2.562E-01,4C000000*,-703.0,962.575,90,24.8,44.8,0.409,742.6,2.2,1.050*
2018-09-27 10:01:00,-2.269E-01,4C000000*,-703.0,962.575,90,24.8,45.0,0.409,742.6,2.2,1.050*
2018-09-27 10:02:00,-3.370E-01,4C000000*,-703.0,960.958,91,24.8,45.0,0.409,742.6,2.2,1.050*
2018-09-27 10:03:00,-3.064E-01,4C000000*,-702.3,960.958,90,24.8,44.7,0.409,742.6,2.2,1.050*
2018-09-27 10:04:00,-3.016E-01,4C000000*,-702.6,962.171,91,24.8,44.9,0.409,742.6,2.2,1.050*
2018-09-27 10:05:00,-3.774E-01,4C000000*,-702.6,961.767,91,24.7,45.1,0.409,742.6,2.2,1.050*
2018-09-27 10:06:00,-2.300E-01,4C000000*,-703.0,962.575,90,24.8,44.8,0.409,742.6,2.2,1.050*
2018-09-27 10:07:00,-2.759E-01,4C000000*,-703.0,962.575,90,24.8,44.8,0.410,742.6,2.2,1.050*
2018-09-27 10:08:00,-2.909E-01,4C000000*,-702.6,962.171,90,24.8,45.0,0.410,742.6,2.2,1.050*
2018-09-27 10:09:00,-3.319E-01,4C000000*,-703.0,961.362,91,24.9,44.8,0.409,742.6,2.2,1.050*
2018-09-27 10:10:00,-2.745E-01,4C000000*,-703.0,962.575,90,24.9,44.8,0.409,742.6,2.2,1.050*
2018-09-27 10:11:00,-2.594E-01,4C000000*,-703.0,961.767,89,24.9,45.1,0.410,742.6,2.2,1.050*
2018-09-27 10:12:00,-3.261E-01,4C000000*,-703.0,962.979,91,24.9,44.9,0.409,742.6,2.2,1.050*
2018-09-27 10:13:00,-3.333E-01,4C000000*,-703.0,961.767,90,24.9,45.0,0.409,742.6,2.2,1.050*
2018-09-27 10:14:00,-2.841E-01,4C000000*,-703.0,961.767,90,24.9,45.0,0.409,742.6,2.2,1.050*
2018-09-27 10:15:00,-2.257E-01,4C000000*,-702.6,960.958,88,24.9,44.8,0.409,742.6,2.2,1.050*
2018-09-27 10:16:00,-2.535E-01,4C000000*,-702.6,961.362,90,24.9,44.9,0.409,742.6,2.2,1.050*
2018-09-27 10:17:00,-4.173E-01,4C000000*,-703.0,960.958,91,24.9,45.2,0.409,742.6,2.2,1.050*
2018-09-27 10:18:00,-2.454E-01,4C000000*,-702.6,960.958,90,24.8,44.7,0.409,742.6,2.2,1.050*
2018-09-27 10:19:00,-3.129E-01,4C000000*,-702.6,962.575,91,25.0,44.9,0.409,742.6,2.2,1.050*
2018-09-27 10:20:00,-2.911E-01,4C000000*,-702.6,960.554,90,25.0,45.1,0.410,742.6,2.2,1.050*
2018-09-27 10:21:00,-2.779E-01,4C000000*,-703.0,960.958,90,24.9,44.8,0.409,742.6,2.2,1.050*
2018-09-27 10:22:00,-3.109E-01,4C000000*,-703.0,960.958,90,25.0,45.0,0.409,742.6,2.2,1.050*
2018-09-27 10:23:00,-3.776E-01,4C000000*,-702.6,960.554,90,24.9,45.0,0.409,742.6,2.2,1.050*
2018-09-27 10:24:00,-2.430E-01,4C000000*,-703.0,962.171,91,25.0,44.8,0.409,742.6,2.2,1.050*
2018-09-27 10:25:00,-3.639E-01,4C000000*,-703.4,960.554,91,24.9,45.0,0.409,742.6,2.2,1.050*
2018-09-27 10:26:00,-3.382E-01,4C000000*,-703.0,962.171,90,25.0,44.9,0.409,742.3,2.2,1.050*
2018-09-27 10:27:00,-3.104E-01,4C000000*,-703.0,960.150,90,25.0,44.9,0.410,742.6,2.2,1.050*
2018-09-27 10:28:00,-3.220E-01,4C000000*,-702.6,961.767,88,25.1,45.2,0.409,742.6,2.2,1.050*
2018-09-27 10:29:00,-3.124E-01,4C000000*,-703.0,962.171,91,25.0,44.7,0.409,742.3,2.2,1.050*
2018-09-27 10:30:00,-4.354E-01,4C000000*,-703.0,962.171,91,25.0,44.8,0.410,742.6,2.2,1.050*
2018-09-27 10:31:00,-2.885E-01,4C000000*,-703.0,962.171,90,25.0,45.0,0.409,742.6,2.2,1.050*
2018-09-27 10:32:00,-2.451E-01,4C000000*,-703.0,960.958,89,25.0,44.8,0.409,742.6,2.2,1.050*
2018-09-27 10:33:00,-2.825E-01,4C000000*,-703.0,961.362,88,25.1,44.9,0.410,742.6,2.2,1.050*
2018-09-27 10:34:00,-3.702E-01,4C000000*,-702.6,962.171,90,25.1,45.1,0.409,742.6,2.2,1.050*
2018-09-27 10:35:00,-3.049E-01,4C000000*,-703.0,961.362,90,25.2,44.8,0.409,742.6,2.2,1.050*
2018-09-27 10:36:00,-2.797E-01,4C000000*,-703.0,962.979,90,25.1,45.1,0.409,742.6,2.2,1.050*
2018-09-27 10:37:00,-2.501E-01,4C000000*,-702.6,961.362,91,25.1,44.8,0.409,742.6,2.2,1.050*
2018-09-27 10:38:00,-2.123E-01,4C000000*,-703.0,961.767,90,25.1,44.8,0.409,742.6,2.2,1.050*
2018-09-27 10:39:00,-3.577E-01,4C000000*,-703.0,963.384,88,25.1,45.0,0.410,742.6,2.2,1.050*
2018-09-27 10:40:00,-3.179E-01,4C000000*,-703.0,961.362,88,25.1,45.0,0.409,742.3,2.2,1.050*
2018-09-27 10:41:00,-2.634E-01,4C000000*,-703.0,962.171,91,25.2,44.8,0.409,742.6,2.2,1.050*
2018-09-27 10:42:00,-3.816E-01,4C000000*,-703.0,960.958,91,25.1,45.0,0.410,742.6,2.2,1.050*
2018-09-27 10:43:00,-3.520E-01,4C000000*,-703.0,961.362,91,25.1,45.0,0.409,742.3,2.2,1.050*
2018-09-27 10:44:00,-3.122E-01,4C000000*,-703.4,960.958,89,25.1,44.9,0.409,742.6,2.2,1.050*
2018-09-27 10:45:00,-3.221E-01,4C000000*,-702.6,961.767,90,25.2,45.2,0.410,742.6,2.2,1.050*
2018-09-27 10:46:00,-2.740E-01,4C000000*,-703.0,960.150,90,25.2,44.8,0.409,742.6,2.2,1.050*
2018-09-27 10:47:00,-2.712E-01,4C000000*,-703.0,961.362,91,25.2,44.9,0.410,742.6,2.2,1.050*
2018-09-27 10:48:00,-2.668E-01,4C000000*,-703.0,960.554,90,25.1,45.1,0.410,742.6,2.2,1.050*
2018-09-27 10:49:00,-2.063E-01,4C000000*,-703.0,961.767,90,25.2,44.8,0.409,742.6,2.2,1.050*
2018-09-27 10:50:00,-2.983E-01,4C000000*,-703.0,960.554,89,25.2,44.8,0.409,742.6,2.2,1.050*
2018-09-27 10:51:00,-3.160E-01,4C000000*,-703.0,960.554,90,25.1,45.0,0.410,742.6,2.2,1.050*
2018-09-27 10:52:00,-3.051E-01,4C000000*,-703.0,962.575,89,25.2,44.9,0.409,742.3,2.2,1.050*
2018-09-27 10:53:00,-2.979E-01,4C000000*,-702.6,961.362,89,25.2,44.8,0.409,742.6,2.2,1.050*
2018-09-27 10:54:00,-3.581E-01,4C000000*,-703.0,960.554,89,25.2,45.0,0.410,742.6,2.2,1.050*
2018-09-27 10:55:00,-3.339E-01,4C000000*,-703.0,961.362,91,25.2,45.0,0.409,742.6,2.2,1.050*
2018-09-27 10:56:00,-3.336E-01,4C000000*,-703.0,961.767,90,25.3,44.8,0.410,742.6,2.2,1.050*
2018-09-27 10:57:00,-3.197E-01,4C000000*,-703.0,961.767,91,25.2,45.0,0.409,742.6,2.2,1.050*
2018-09-27 10:58:00,-3.370E-01,4C000000*,-703.0,961.362,89,25.2,45.0,0.409,742.6,2.2,1.050*
2018-09-27 10:59:00,-3.229E-01,4C000000*,-703.0,961.767,89,25.2,44.8,0.409,742.6,2.2,1.050*
2018-09-27 11:00:00,-3.720E-01,4C000000*,-703.0,961.362,90,25.2,45.0,0.410,742.6,2.2,1.050*
2018-09-27 11:01:00,-2.990E-01,4C000000*,-703.0,960.554,90,25.2,44.8,0.410,742.6,2.2,1.050*
2018-09-27 11:02:00,-3.216E-01,4C000000*,-703.0,961.767,88,25.3,45.0,0.410,742.6,2.2,1.050*
2018-09-27 11:03:00,-2.660E-01,4C000000*,-702.6,961.767,90,25.2,45.0,0.410,742.6,2.2,1.050*
2018-09-27 11:04:00,-3.093E-01,4C000000*,-702.6,962.171,90,25.2,44.8,0.410,742.6,2.2,1.050*
2018-09-27 11:05:00,-2.627E-01,4C000000*,-703.0,962.171,89,25.2,45.0,0.409,742.9,2.2,1.050*
2018-09-27 11:06:00,-3.326E-01,4C000000*,-703.0,961.362,89,25.3,45.0,0.409,742.3,2.2,1.050*
2018-09-27 11:07:00,-3.061E-01,4C000000*,-703.0,961.362,90,25.3,44.8,0.409,742.6,2.2,1.050*
2018-09-27 11:08:00,-4.237E-01,4C000000*,-702.3,961.767,88,25.3,44.9,0.410,742.6,2.2,1.050*
2018-09-27 11:09:00,-3.128E-01,4C000000*,-703.0,961.362,90,25.3,45.1,0.410,742.6,2.2,1.050*
2018-09-27 11:10:00,-2.863E-01,4C000000*,-703.0,960.958,89,25.3,44.9,0.409,742.6,2.2,1.050*
2018-09-27 11:11:00,-2.842E-01,4C000000*,-703.4,961.362,88,25.3,45.0,0.410,742.6,2.2,1.050*
2018-09-27 11:12:00,-3.802E-01,4C000000*,-702.3,962.575,90,25.3,44.9,0.409,742.6,2.2,1.050*
2018-09-27 11:13:00,-2.017E-01,4C000000*,-703.0,962.171,90,25.3,45.0,0.409,742.6,2.2,1.050*
2018-09-27 11:14:00,-3.335E-01,4C000000*,-703.0,961.362,90,25.3,45.1,0.409,742.3,2.2,1.050*
2018-09-27 11:15:00,-3.433E-01,4C000000*,-702.6,960.958,91,25.3,44.7,0.410,742.6,2.2,1.050*
2018-09-27 11:16:00,-3.128E-01,4C000000*,-703.0,960.958,89,25.4,45.0,0.409,742.6,2.2,1.050*
2018-09-27 11:17:00,-2.391E-01,4C000000*,-703.4,961.362,90,25.3,44.9,0.409,742.3,2.2,1.050*
2018-09-27 11:18:00,-3.235E-01,4C000000*,-703.0,960.958,91,25.4,44.9,0.409,742.6,2.2,1.050*
2018-09-27 11:19:00,-2.707E-01,4C000000*,-703.4,961.362,90,25.3,45.2,0.409,742.6,2.2,1.050*
2018-09-27 11:20:00,-3.097E-01,4C000000*,-703.0,961.767,90,25.4,44.7,0.409,742.6,2.2,1.050*
2018-09-27 11:21:00,-3.492E-01,4C000000*,-703.0,962.171,89,25.4,44.9,0.410,742.6,2.2,1.050*
2018-09-27 11:22:00,-3.902E-01,4C000000*,-702.6,962.171,90,25.5,45.1,0.409,742.6,2.2,1.050*
2018-09-27 11:23:00,-3.241E-01,4C000000*,-703.0,962.171,89,25.4,44.8,0.409,742.6,2.2,1.050*
2018-09-27 11:24:00,-3.016E-01,4C000000*,-703.0,960.554,90,25.4,44.9,0.410,742.3,2.2,1.050*
2018-09-27 11:25:00,-2.258E-01,4C000000*,-703.0,962.171,89,25.4,45.0,0.409,742.6,2.2,1.050*
2018-09-27 11:26:00,-2.935E-01,4C000000*,-702.6,960.958,90,25.4,44.8,0.409,742.6,2.2,1.050*
2018-09-27 11:27:00,-3.223E-01,4C000000*,-703.0,962.979,90,25.4,45.0,0.410,742.6,2.2,1.050*
2018-09-27 11:28:00,-2.397E-01,4C000000*,-703.0,962.575,89,25.4,44.9,0.410,742.6,2.2,1.050*
2018-09-27 11:29:00,-2.317E-01,4C000000*,-702.6,960.554,91,25.4,44.8,0.410,742.6,2.2,1.050*
2018-09-27 11:30:00,-3.333E-01,4C000000*,-703.0,961.767,90,25.5,45.1,0.409,742.6,2.2,1.050*
2018-09-27 11:31:00,-2.811E-01,4C000000*,-702.6,960.554,89,25.4,44.8,0.410,742.6,2.2,1.050*
2018-09-27 11:32:00,-2.708E-01,4C000000*,-703.0,961.767,90,25.5,44.9,0.409,742.6,2.2,1.050*
2018-09-27 11:33:00,-2.656E-01,4C000000*,-703.0,962.575,89,25.5,45.1,0.409,742.6,2.2,1.050*
2018-09-27 11:34:00,-2.831E-01,4C000000*,-702.6,961.362,89,25.4,44.8,0.410,742.6,2.2,1.050*
2018-09-27 11:35:00,-3.589E-01,4C000000*,-702.6,962.171,90,25.5,45.0,0.409,742.9,2.2,1.050*
2018-09-27 11:36:00,-3.366E-01,4C000000*,-703.4,962.575,90,25.5,45.1,0.409,742.3,2.2,1.050*
2018-09-27 11:37:00,-3.364E-01,4C000000*,-702.6,962.171,91,25.5,44.8,0.409,742.6,2.2,1.050*
2018-09-27 11:38:00,-2.522E-01,4C000000*,-703.0,961.362,90,25.6,45.0,0.409,742.3,2.2,1.050*
2018-09-27 11:39:00,-3.521E-01,4C000000*,-703.0,961.767,90,25.5,44.9,0.410,742.6,2.2,1.050*
2018-09-27 11:40:00,-2.555E-01,4C000000*,-703.4,961.767,89,25.4,44.8,0.409,742.6,2.2,1.050*
2018-09-27 11:41:00,-3.698E-01,4C000000*,-703.0,961.767,89,25.5,45.1,0.409,742.6,2.2,1.050*
2018-09-27 11:42:00,-3.610E-01,4C000000*,-702.6,961.767,89,25.5,44.8,0.410,742.6,2.2,1.050*
2018-09-27 11:43:00,-2.670E-01,4C000000*,-703.0,960.958,92,25.5,44.9,0.409,742.3,2.2,1.050*
2018-09-27 11:44:00,-2.618E-01,4C000000*,-703.0,959.341,89,25.6,45.1,0.409,742.3,2.2,1.050*
2018-09-27 11:45:00,-3.085E-01,4C000000*,-703.0,961.767,90,25.5,44.7,0.410,742.3,2.2,1.050*
2018-09-27 11:46:00,-2.999E-01,4C000000*,-703.0,961.767,90,25.6,44.9,0.410,742.6,2.2,1.050*
2018-09-27 11:47:00,-3.792E-01,4C000000*,-703.0,960.958,91,25.6,45.1,0.410,742.3,2.2,1.050*